map of BTJ home
Great Circle Mapper logo
BTJ - Airport
Location
City:  Banda Aceh, Aceh, Indonesia
Name:Sultan Iskandar Muda
ICAO / IATA:WITT / BTJ

Details
Type:Airport (Aerodrome, Airfield)
Latitude:5°31'25"N (5.523522)
Longitude:95°25'13"E (95.420372)
Datum:WGS 1984
Elevation:65 ft (20 m)
Variation:0.77°W (WMM2015 magnetic declination)
0.04° annual change
Runways:1
Longest:8184 × 148 ft (2494 × 45 m), paved

Time
Time Zone:UTC+7
Local Time:

Weather
TAF:WITT 061700Z 0618/0718 13007KT 8000 BKN017
BECMG 0621/1623 00000KT 8000 SCT018
BECMG 0705/0707 09005KT 9000 SCT020

Related Locations
Nearby:
Farthest:TYL: 12210 mi / 19651 km
Talara [Capitán FAP Victor Montes Airport], PIU, PE

Find:

   beyond  
but within

Other Information
Maps:
NOTAMs:
Links:
Sources:

  
flag of Indonesia   

Sectional Chart

Flight Planning
at skyvector.com

Satellite Image

Google Maps Satellite view

 

Copyright © 2004-2016 Karl L. Swartz. All rights reserved.
The Great Circle Mapper name and logo are trademarks of the Great Circle Mapper.
All other trademarks mentioned herein belong to their respective owners.
Please see credits for attibutions and further copyright information.

  Follow gcmap on Facebook Follow gcmap on Twitter Follow gcmap on Google+ GCmap on LinkedIn

hCard Microformat

Geo Microformat